Stations météo

réclame
Mon MeteoGroup
Greifswalder Oie, Allemagne (10097): Température de l'air & dewpoint: 16.07.2018 16:00:00 - 22.07.2018 16:00:00 (CEST)Greifswalder Oie, Allemagne (10097): Température de l'air 5cm & Température de l'air -5cm: 16.07.2018 16:00:00 - 22.07.2018 16:00:00 (CEST)Greifswalder Oie, Allemagne (10097): Température de l'air -20cm & Température de l'air -100cm: 16.07.2018 16:00:00 - 22.07.2018 16:00:00 (CEST)Greifswalder Oie, Allemagne (10097): water temperature: 16.07.2018 16:00:00 - 22.07.2018 16:00:00 (CEST)Greifswalder Oie, Allemagne (10097): Vitesse du vent & gusts: 16.07.2018 16:00:00 - 22.07.2018 16:00:00 (CEST)Greifswalder Oie, Allemagne (10097): Direction du vent: 16.07.2018 16:00:00 - 22.07.2018 16:00:00 (CEST)Greifswalder Oie, Allemagne (10097): reduced air pressure: 16.07.2018 16:00:00 - 22.07.2018 16:00:00 (CEST)Greifswalder Oie, Allemagne (10097): visibility: 16.07.2018 16:00:00 - 22.07.2018 16:00:00 (CEST)Greifswalder Oie, Allemagne (10097): Ensoleillement: 16.07.2018 16:00:00 - 22.07.2018 16:00:00 (CEST)Greifswalder Oie, Allemagne (10097): Quantités de précipitations: 16.07.2018 16:00:00 - 22.07.2018 16:00:00 (CEST)
Date & Time tt [°C] td [°C] tt 5cm [°C] tt -5cm [°C] tt -20cm [°C] tt -100cm [°C] tw [°C] ff [km/h] ff [knt] fx [km/h] fx [knt] dd ppp [hPa] vv [km] sd [min] rr [mm]
22.07.2018 16:00:00 24,0 17,1 29,2 33,3 26,0 18,3 23,9 17 9 26 14 ESE 1012,1 10 55 0,0
22.07.2018 15:00:00 24,0 16,7 28,2 33,6 25,3 18,3 23,3 16 9 25 13 ESE 1012,4 10 58 0,0
22.07.2018 14:00:00 24,2 15,5 29,9 33,2 24,5 18,3 22,8 14 8 21 12 ESE 1012,6 21 60 0,0
22.07.2018 13:00:00 23,9 15,3 29,7 31,4 23,8 18,3 22,9 10 5 19 10 SE 1012,8 13 51 0,0
22.07.2018 12:00:00 23,3 16,1 29,3 29,6 23,1 18,2 22,8 11 6 16 9 SE 1012,9 15 48 0,0
22.07.2018 11:00:00 22,9 14,7 29,2 27,4 22,5 18,2 22,4 6 4 10 5 SE 1012,9 16 33 0,0
22.07.2018 10:00:00 23,1 14,8 26,3 25,8 22,1 18,2 22,0 7 4 14 8 WSW 1012,8 27 56 0,0
22.07.2018 09:00:00 22,1 14,9 24,0 23,0 22,0 18,2 21,7 13 7 23 12 WSW 1012,6 18 60 0,0
22.07.2018 08:00:00 21,1 15,4 22,0 21,3 22,1 18,2 21,6 16 9 19 10 WSW 1012,4 20 60 0,0
22.07.2018 07:00:00 20,5 16,1 20,8 20,3 22,3 18,2 21,6 9 5 17 9 W 1012,0 20 23 0,0
22.07.2018 06:00:00 19,7 15,2 18,4 20,2 22,6 18,1 21,7 12 7 16 9 WSW 1012,0 26 0 0,0
22.07.2018 05:00:00 19,4 15,4 17,8 20,6 23,0 18,1 21,8 11 6 15 8 WSW 1011,9 23 0 0,0
22.07.2018 04:00:00 19,3 15,2 17,7 21,1 23,3 18,1 21,8 12 7 18 10 SW 1011,9 23 0 0,0
22.07.2018 03:00:00 20,7 17,3 19,5 21,6 23,7 18,1 21,7 14 8 17 9 W 1011,9 21 0 0,0
22.07.2018 02:00:00 21,0 17,0 20,1 21,8 24,1 18,1 21,8 14 8 16 9 W 1011,9 22 0 0,0
22.07.2018 01:00:00 18,2 16,0 13,7 22,2 24,6 18,1 21,8 11 6 13 7 NW 1012,1 25 0 0,0
22.07.2018 00:00:00 19,4 15,9 15,3 23,4 25,1 18,1 22,2 8 4 10 6 WNW 1012,0 30 0 0,0
21.07.2018 23:00:00 20,8 16,5 19,6 24,4 25,6 18,1 22,7 9 5 13 7 WNW 1012,1 29 0 0,0
21.07.2018 22:00:00 21,4 15,1 20,5 25,6 26,1 18,1 22,9 12 6 15 8 W 1011,7 26 0 0,0
21.07.2018 21:00:00 21,7 14,4 20,6 27,2 26,4 18,1 23,1 10 5 11 6 W 1011,7 32 38 0,0
21.07.2018 20:00:00 22,6 13,1 23,4 29,5 26,6 18,1 23,2 6 4 11 6 WSW 1011,9 31 60 0,0
21.07.2018 19:00:00 23,4 12,4 26,4 31,1 26,4 18,1 22,8 4 2 10 5 SW 1012,2 36 60 0,0
21.07.2018 18:00:00 23,0 13,6 26,7 32,8 26,1 18,1 22,4 4 2 10 5 SE 1012,5 37 60 0,0
21.07.2018 17:00:00 23,2 13,2 28,8 33,6 25,5 18,1 21,9 4 2 8 5 N 1012,5 27 60 0,0
21.07.2018 16:00:00 23,2 14,0 29,6 33,4 24,8 18,1 22,0 7 4 14 8 N 1012,5 25 60 0,0
21.07.2018 15:00:00 22,7 14,6 29,2 32,3 24,1 18,1 21,8 6 4 11 6 S 1012,9 21 55 0,0
21.07.2018 14:00:00 21,8 15,1 25,2 30,5 23,3 18,0 21,2 4 2 13 7 NNW 1013,0 32 42 0,0
21.07.2018 13:00:00 22,8 15,9 28,5 30,5 22,4 18,0 21,0 12 6 20 11 NNE 1013,1 15 60 0,0
21.07.2018 12:00:00 23,4 15,5 27,7 28,0 21,7 18,0 21,0 14 8 22 12 N 1013,1 17 60 0,0
21.07.2018 11:00:00 22,7 15,7 25,3 25,7 21,2 18,0 20,8 17 9 23 12 NNW 1013,2 38 59 0,0
21.07.2018 10:00:00 22,4 15,5 23,7 23,5 20,9 18,0 20,7 17 9 22 12 NNW 1013,2 36 60 0,0
21.07.2018 09:00:00 21,4 15,7 22,2 21,7 20,7 18,0 20,6 16 9 23 12 NW 1013,2 22 60 0,0
21.07.2018 08:00:00 20,4 15,2 21,3 20,1 20,8 18,0 20,5 20 11 24 13 NNW 1012,7 37 60 0,0
21.07.2018 07:00:00 19,6 15,4 19,5 19,1 21,0 18,0 20,5 18 10 25 13 NW 1012,5 35 60 0,0
21.07.2018 06:00:00 18,5 14,9 18,2 18,8 21,2 18,0 20,5 19 10 23 13 NW 1012,5 15 20 0,0
21.07.2018 05:00:00 17,9 15,1 17,2 19,1 21,6 18,0 20,6 21 11 27 15 NW 1012,4 26 0 0,0
21.07.2018 04:00:00 18,1 14,9 17,7 19,5 21,9 18,0 20,7 24 13 29 16 NW 1012,2 33 0 0,0
21.07.2018 03:00:00 18,6 15,5 18,1 20,0 22,2 18,0 20,8 21 12 25 14 WNW 1012,5 31 0 0,0
21.07.2018 02:00:00 19,1 15,4 18,5 20,5 22,6 18,0 20,9 22 12 29 15 WNW 1012,6 32 0 0,0
21.07.2018 01:00:00 19,5 15,5 19,0 21,0 23,0 18,0 21,0 25 14 30 16 WNW 1012,6 28 0 0,0
21.07.2018 00:00:00 19,8 15,0 19,3 21,6 23,4 18,0 21,1 26 14 31 17 WNW 1012,5 37 0 0,0
20.07.2018 23:00:00 20,2 14,3 19,5 22,4 23,8 18,0 21,2 25 14 29 16 WNW 1012,6 38 0 0,0
20.07.2018 22:00:00 20,4 14,3 19,8 23,4 24,2 18,0 21,3 23 12 30 16 WNW 1012,6 39 7 0,0
20.07.2018 21:00:00 21,1 14,1 20,7 24,8 24,5 18,0 21,4 20 11 26 14 WNW 1012,8 17 60 0,0
20.07.2018 20:00:00 21,4 13,7 21,4 26,9 24,6 18,0 21,5 13 7 24 13 WNW 1012,9 40 60 0,0
20.07.2018 19:00:00 23,3 13,2 25,1 27,9 24,5 18,0 21,4 13 7 29 16 NNW 1013,1 70 60 0,0
20.07.2018 18:00:00 21,5 12,6 23,3 28,7 24,4 18,0 21,3 26 14 30 16 W 1013,0 12 60 0,0
20.07.2018 17:00:00 22,3 10,2 24,5 29,8 24,0 18,0 21,4 26 14 34 18 WNW 1013,3 15 60 0,0
20.07.2018 16:00:00 22,5 12,2 25,0 30,9 23,3 18,0 21,3 23 12 29 16 WNW 1013,8 13 60 0,0
20.07.2018 15:00:00 21,3 12,9 25,5 30,5 22,5 18,0 21,1 15 8 19 11 W 1014,1 18 60 0,0
20.07.2018 14:00:00 21,5 10,6 26,2 29,5 21,7 18,0 20,8 14 8 21 12 WNW 1014,3 24 60 0,0
20.07.2018 13:00:00 22,2 14,4 25,0 27,0 21,0 18,0 20,6 15 8 28 15 NNW 1014,5 26 60 0,0
20.07.2018 12:00:00 22,0 15,0 24,3 23,4 20,6 18,0 20,6 23 13 34 18 NNW 1014,7 25 26 0,0
20.07.2018 11:00:00 19,4 15,0 19,9 23,0 20,3 18,0 20,6 29 16 35 19 W 1014,6 23 33 0,0
20.07.2018 10:00:00 19,8 14,5 21,7 22,4 19,9 18,0 20,5 18 10 23 13 W 1014,4 19 60 0,0
20.07.2018 09:00:00 20,2 16,1 21,1 20,3 19,7 18,0 20,3 16 9 24 13 WNW 1014,5 15 60 0,0
20.07.2018 08:00:00 19,1 15,8 19,8 18,9 19,8 18,0 20,2 18 10 22 12 WNW 1014,4 11 60 0,0
20.07.2018 07:00:00 18,5 15,7 19,0 17,9 19,9 18,0 20,2 18 10 23 12 NW 1014,4 14 60 0,0
20.07.2018 06:00:00 17,9 15,5 17,6 17,6 20,2 18,0 20,3 20 11 27 15 NW 1014,3 23 29 0,0
20.07.2018 05:00:00 17,6 15,4 17,1 17,9 20,5 18,0 20,4 24 13 29 16 NW 1014,4 39 0 0,0
20.07.2018 04:00:00 18,3 15,3 17,7 18,3 20,8 18,0 20,5 23 13 31 17 WNW 1014,5 40 0 0,0
20.07.2018 03:00:00 18,7 15,3 18,1 18,7 21,1 18,0 20,5 26 14 29 16 WNW 1014,6 41 0 0,0
20.07.2018 02:00:00 18,9 15,2 18,4 19,1 21,5 18,0 20,6 25 14 32 17 WNW 1014,9 43 0 0,0
20.07.2018 01:00:00 19,1 15,3 18,6 19,5 21,8 18,0 20,6 25 14 32 17 WNW 1015,2 41 0 0,0
20.07.2018 00:00:00 19,6 14,6 19,0 20,1 22,2 18,0 20,7 27 15 35 19 WNW 1015,4 49 0 0,0
19.07.2018 23:00:00 20,1 14,4 19,4 20,8 22,6 18,0 20,7 25 13 32 17 WNW 1015,4 48 0 0,0
19.07.2018 22:00:00 20,1 14,4 19,7 21,7 23,0 18,0 20,7 27 15 35 19 WNW 1015,5 50 11 0,0
19.07.2018 21:00:00 20,5 14,3 20,2 23,1 23,3 18,0 20,8 31 17 36 19 WNW 1015,4 50 60 0,0
19.07.2018 20:00:00 21,3 14,8 21,6 25,0 23,4 18,0 20,9 29 16 39 21 WNW 1015,5 29 60 0,0
19.07.2018 19:00:00 22,5 15,6 23,2 26,8 23,3 18,0 20,9 24 13 36 19 WNW 1015,5 31 60 0,0
19.07.2018 18:00:00 23,3 15,1 24,8 27,9 22,9 18,0 20,9 32 17 39 21 NNW 1015,6 22 60 0,0
19.07.2018 17:00:00 23,3 14,2 25,3 28,2 22,4 18,0 20,9 34 19 47 25 NNW 1015,9 21 60 0,0
19.07.2018 16:00:00 23,1 14,4 25,4 27,8 21,8 18,0 20,8 39 21 46 25 NNW 1016,0 24 60 0,0
19.07.2018 15:00:00 23,1 13,6 25,0 25,6 21,3 18,0 20,6 40 21 48 26 NNW 1016,1 35 33 0,0
19.07.2018 14:00:00 23,4 14,4 24,3 26,0 20,7 18,0 20,6 42 23 51 28 NW 1016,0 16 60 0,0
19.07.2018 13:00:00 22,4 15,1 23,6 23,5 20,4 18,0 20,4 41 22 54 29 NNW 1016,0 20 60 0,0
19.07.2018 12:00:00 21,5 15,7 22,5 21,6 20,2 18,0 20,3 46 25 54 29 NW 1015,7 18 43 0,0
19.07.2018 11:00:00 20,0 16,1 20,7 20,7 20,1 18,0 20,2 46 25 54 29 NNW 1015,5 24 4 0,0
19.07.2018 10:00:00 19,8 16,2 20,5 19,9 20,0 18,0 20,2 43 23 53 28 NNW 1015,3 27 0 0,0
19.07.2018 09:00:00 19,6 17,2 19,8 19,4 20,1 18,0 20,3 40 22 49 27 NNW 1015,2 22 0 0,0
19.07.2018 08:00:00 19,3 17,0 19,2 19,2 20,2 18,0 20,4 42 23 52 28 NNW 1014,9 18 0 0,0
19.07.2018 07:00:00 19,3 17,3 19,2 19,2 20,3 18,0 20,5 44 24 60 32 NNW 1014,6 19 0 0,0
19.07.2018 06:00:00 19,2 17,4 19,1 19,2 20,4 18,0 20,5 49 26 60 33 NNW 1014,2 13 0 0,1
19.07.2018 05:00:00 19,2 18,2 18,7 19,4 20,6 18,0 20,6 46 25 59 32 NNW 1014,2 6 0 0,0
19.07.2018 04:00:00 19,6 18,3 19,2 19,5 20,7 18,0 20,6 38 20 56 30 NNW 1014,1 13 0 0,0
19.07.2018 03:00:00 19,2 18,0 18,7 19,6 20,9 18,0 20,6 39 21 53 29 NNW 1014,0 14 0 0,0
19.07.2018 02:00:00 18,9 18,2 18,6 19,8 21,1 18,0 20,6 41 22 49 26 NNW 1014,2 6 0 0,1
19.07.2018 01:00:00 19,4 18,4 19,3 20,0 21,3 18,0 20,5 34 18 41 22 NNW 1014,0 6 0 0,0
19.07.2018 00:00:00 19,6 18,2 19,4 20,2 21,5 18,0 20,5 23 12 35 19 N 1014,1 6 0 0,0
18.07.2018 23:00:00 19,5 18,3 18,7 20,3 21,8 18,0 20,6 11 6 15 8 NNW 1013,7 9 0 0,0
18.07.2018 22:00:00 19,8 18,8 18,8 21,0 22,1 18,0 20,6 12 7 29 15 N 1013,7 4,6 0 0,0
18.07.2018 21:00:00 21,0 18,0 20,8 21,7 22,4 18,0 20,6 26 14 30 16 WNW 1013,7 18 5 0,0
18.07.2018 20:00:00 22,1 17,9 22,2 22,9 22,5 18,0 20,6 27 15 40 22 WNW 1013,4 19 57 0,0
18.07.2018 19:00:00 23,0 18,0 23,5 23,8 22,6 18,1 20,6 29 16 36 19 NW 1013,3 22 19 0,0
18.07.2018 18:00:00 22,5 18,4 23,0 24,9 22,4 18,1 20,6 27 14 32 17 NNW 1013,4 17 28 0,0
18.07.2018 17:00:00 22,1 18,9 23,8 25,4 22,1 18,1 20,5 20 11 24 13 NNW 1013,4 10 18 0,0
18.07.2018 16:00:00 23,2 18,4 26,4 26,8 21,6 18,1 20,4 21 11 29 16 NNW 1013,4 15 60 0,0
18.07.2018 15:00:00 22,0 18,2 25,3 25,2 21,2 18,1 20,4 23 12 40 22 N 1013,5 22 39 0,0
18.07.2018 14:00:00 22,4 18,6 24,2 23,7 20,8 18,1 20,3 31 17 38 21 NNW 1013,4 13 15 0,0
18.07.2018 13:00:00 22,1 18,5 23,0 22,8 20,5 18,1 20,2 27 15 34 18 WNW 1013,0 11 23 0,0
18.07.2018 12:00:00 21,5 18,9 22,3 21,4 20,3 18,1 20,1 26 14 34 18 NW 1012,9 13 0 0,0
18.07.2018 11:00:00 20,1 18,4 20,3 20,4 20,3 18,1 20,1 29 16 35 19 WNW 1012,7 15 0 0,0
18.07.2018 10:00:00 19,3 18,1 19,2 19,9 20,3 18,1 20,0 33 18 38 20 WNW 1012,5 17 0 0,0
18.07.2018 09:00:00 19,2 18,2 18,9 19,7 20,3 18,0 20,0 28 15 40 21 NW 1012,4 13 0 0,1
18.07.2018 08:00:00 19,1 18,1 18,7 19,4 20,4 18,0 20,0 32 17 39 21 NNW 1012,2 8 0 0,8
18.07.2018 07:00:00 19,1 18,1 18,6 19,2 20,5 18,0 20,0 31 17 42 23 NNW 1012,0 6 0 1,5
18.07.2018 06:00:00 19,0 17,7 18,3 19,3 20,7 18,0 20,0 30 16 42 23 NNW 1011,6 9 0 1,9
18.07.2018 05:00:00 19,4 18,1 18,7 19,4 20,8 18,0 20,1 30 16 45 24 NNW 1011,7 10 0 0,1
18.07.2018 04:00:00 19,6 17,9 18,7 19,5 21,0 18,0 20,1 37 20 43 23 NNW 1011,6 13 0 0,0
18.07.2018 03:00:00 19,3 17,9 18,8 19,6 21,1 18,0 20,1 34 18 38 21 NNW 1011,4 16 0 0,0
18.07.2018 02:00:00 19,3 18,4 18,9 19,7 21,3 18,0 20,1 29 15 33 18 WNW 1011,5 12 0 0,1
18.07.2018 01:00:00 19,2 18,4 18,8 19,9 21,5 18,0 20,2 24 13 29 16 NW 1011,6 7 0 0,5
18.07.2018 00:00:00 19,3 18,3 18,8 20,1 21,7 18,0 20,2 16 8 39 21 N 1011,4 5 0 1,5
17.07.2018 23:00:00 20,3 17,3 19,9 20,2 21,9 18,0 20,2 26 14 38 21 NNW 1011,7 26 0 0,0
17.07.2018 22:00:00 20,2 16,9 20,1 20,5 22,2 18,0 20,2 27 15 32 17 NNW 1011,4 29 0 0,0
17.07.2018 21:00:00 20,0 17,7 20,0 21,1 22,4 17,9 20,2 21 11 23 13 NW 1011,4 21 0 1,1
17.07.2018 20:00:00 20,1 18,0 20,2 21,7 22,6 17,9 20,2 20 11 26 14 WNW 1011,4 21 0 0,0
17.07.2018 19:00:00 20,0 18,5 20,3 22,4 22,8 17,9 20,2 20 11 24 13 NW 1011,5 17 0 0,0
17.07.2018 18:00:00 19,8 18,7 19,8 22,8 23,0 17,9 20,2 16 9 29 16 NNW 1011,8 10 0 0,1
17.07.2018 17:00:00 19,5 18,4 19,4 22,9 23,2 17,9 20,0 20 11 26 14 NNW 1011,8 9 0 1,9
17.07.2018 16:00:00 19,6 18,4 19,7 24,0 23,2 17,9 20,1 20 11 30 16 NNW 1012,1 7 0 1,1
17.07.2018 15:00:00 20,5 17,9 21,0 25,3 23,1 17,9 20,2 16 9 26 14 N 1012,4 10 0 0,1
17.07.2018 14:00:00 21,2 17,2 23,4 26,4 22,8 17,8 20,2 16 9 26 14 N 1012,2 21 1 0,0
17.07.2018 13:00:00 23,0 17,2 27,3 25,2 22,6 17,8 20,3 21 11 27 15 NNW 1012,1 27 9 0,0
17.07.2018 12:00:00 21,6 17,6 22,4 23,9 22,4 17,8 20,2 16 8 18 10 NW 1012,0 29 0 0,0
17.07.2018 11:00:00 21,1 17,3 23,4 23,1 22,4 17,8 20,1 9 5 16 8 N 1012,3 24 0 0,0
17.07.2018 10:00:00 20,6 17,6 20,5 22,5 22,4 17,8 20,2 11 6 14 7 NNW 1012,1 20 0 0,0
17.07.2018 09:00:00 20,1 16,1 20,2 22,0 22,5 17,7 20,2 9 5 17 9 NE 1012,2 32 0 0,2
17.07.2018 08:00:00 20,5 17,2 20,2 21,8 22,7 17,7 20,1 8 5 19 10 N 1012,2 23 0 0,0
17.07.2018 07:00:00 20,1 18,0 19,9 21,6 22,9 17,7 20,2 14 7 17 9 NNW 1011,6 25 0 0,0
17.07.2018 06:00:00 20,0 17,5 19,3 21,5 23,2 17,7 20,1 8 5 11 6 NNE 1011,7 29 0 0,0
17.07.2018 05:00:00 19,7 18,7 18,9 21,6 23,5 17,7 20,0 5 3 15 8 N 1011,8 11 0 0,0
17.07.2018 04:00:00 19,7 18,4 18,9 21,9 23,8 17,6 20,2 10 5 21 11 N 1012,0 21 0 0,0
17.07.2018 03:00:00 19,6 18,0 18,7 22,1 24,2 17,6 20,3 17 9 21 11 NNW 1012,1 15 0 0,0
17.07.2018 02:00:00 19,1 18,2 17,7 22,5 24,7 17,6 20,4 13 7 17 9 NNW 1012,5 7 0 0,0
17.07.2018 01:00:00 19,5 17,9 17,6 23,4 25,1 17,6 20,7 9 5 13 7 N 1012,6 13 0 0,0
17.07.2018 00:00:00 20,4 16,1 19,6 24,1 25,6 17,6 20,8 10 5 13 7 NNE 1012,6 30 0 0,0
16.07.2018 23:00:00 20,4 15,8 19,6 24,7 26,1 17,6 20,9 9 5 16 9 NNE 1013,0 28 0 0,0
16.07.2018 22:00:00 20,0 17,1 18,8 26,0 26,6 17,6 21,0 10 5 15 8 NE 1013,2 21 18 0,0
16.07.2018 21:00:00 20,5 18,4 20,0 27,9 27,0 17,6 21,1 10 5 16 9 NE 1012,8 11 60 0,0
16.07.2018 20:00:00 21,1 17,8 22,5 30,2 27,2 17,6 20,9 11 6 18 10 NE 1012,9 14 60 0,0
16.07.2018 19:00:00 21,9 17,6 24,4 32,0 27,2 17,5 21,1 12 7 20 11 NNE 1013,1 19 60 0,0
16.07.2018 18:00:00 22,0 17,1 25,3 33,6 26,9 17,5 21,3 16 8 21 11 NNE 1013,2 19 60 0,0
16.07.2018 17:00:00 22,5 17,0 27,3 34,7 26,4 17,5 21,2 10 6 17 9 NNE 1013,3 18 60 0,0
16.07.2018 16:00:00 22,3 16,6 27,6 35,1 25,7 17,5 21,1 12 6 18 10 NNE 1013,8 23 60 0,0

tt = Température de l'air
td = dewpoint
tt 5cm = Température de l'air 5cm
tt -5cm = Température de l'air -5cm
tt -20cm = Température de l'air -20cm
tt -100cm = Température de l'air -100cm
tw = water temperature
ff = Vitesse du vent
fx = gusts
dd = Direction du vent
ppp = reduced air pressure
vv = visibility
sd = Ensoleillement
rr = Quantités de précipitations

stations d'obs. à proximité